| time (UTC) | temp F | wind direction | speed knots | gust knots | rain 1hr in | rain 24hr in | rain mn in | humidity % | barometer mb |
| 20260505020312 | 50 | 157 | 0.0 | 1.7 | 0.00 | 0.00 | 0.00 | 77 | 1014.6 |
| 20260505013312 | 51 | 135 | 3.5 | 7.8 | 0.00 | 0.00 | 0.00 | 77 | 1014.8 |
| 20260505010311 | 50 | 112 | 1.7 | 7.0 | 0.00 | 0.00 | 0.00 | 79 | 1015.1 |
| 20260505000311 | 48 | 0 | 0.0 | 0.0 | 0.00 | 0.00 | 0.00 | 81 | 1015.2 |
| 20260504233311 | 48 | 0 | 0.0 | 0.0 | 0.00 | 0.00 | 0.00 | 80 | 1015.6 |
| 20260504230311 | 49 | 0 | 0.0 | 0.0 | 0.00 | 0.00 | 0.00 | 78 | 1015.8 |
| 20260504223311 | 49 | 0 | 0.0 | 0.0 | 0.00 | 0.00 | 0.00 | 79 | 1016.0 |
| 20260504220311 | 49 | 0 | 0.0 | 0.0 | 0.00 | 0.00 | 0.00 | 78 | 1016.0 |
| 20260504213311 | 50 | 0 | 0.0 | 0.0 | 0.00 | 0.00 | 0.00 | 76 | 1015.9 |
| 20260504210311 | 51 | 0 | 0.0 | 0.0 | 0.00 | 0.00 | 0.00 | 74 | 1015.9 |
| 20260504203311 | 51 | 0 | 0.0 | 0.0 | 0.00 | 0.00 | 0.00 | 73 | 1015.6 |
| 20260504200311 | 52 | 0 | 0.0 | 0.0 | 0.00 | 0.00 | 0.00 | 72 | 1015.3 |
| 20260504193311 | 52 | 0 | 0.0 | 0.0 | 0.00 | 0.00 | 0.00 | 71 | 1015.5 |
| 20260504190311 | 52 | 292 | 0.0 | 3.5 | 0.00 | 0.00 | 0.00 | 70 | 1015.0 |
| 20260504183311 | 53 | 0 | 0.0 | 0.0 | 0.00 | 0.00 | 0.00 | 68 | 1014.6 |
| 20260504173310 | 56 | 315 | 0.9 | 1.7 | 0.00 | 0.00 | 0.00 | 63 | 1014.0 |
| 20260504170310 | 58 | 90 | 0.9 | 4.3 | 0.00 | 0.00 | 0.00 | 58 | 1013.9 |
| 20260504160310 | 62 | 292 | 1.7 | 8.7 | 0.00 | 0.00 | 0.00 | 45 | 1013.9 |
| 20260504150310 | 67 | 180 | 3.5 | 8.7 | 0.00 | 0.00 | 0.00 | 40 | 1014.9 |
| 20260504140309 | 68 | 157 | 2.6 | 9.6 | 0.00 | 0.00 | 0.00 | 43 | 1015.8 |
| 20260504130310 | 68 | 157 | 2.6 | 7.8 | 0.00 | 0.00 | 0.00 | 50 | 1016.1 |
| 20260504120309 | 69 | 157 | 3.5 | 9.6 | 0.00 | 0.00 | 0.00 | 45 | 1016.6 |
| 20260504110309 | 67 | 135 | 6.1 | 10.4 | 0.00 | 0.00 | 0.00 | 48 | 1016.8 |
| 20260504100308 | 66 | 135 | 4.3 | 8.7 | 0.00 | 0.00 | 0.00 | 48 | 1017.1 |
| 20260504080310 | 61 | 0 | 0.0 | 0.0 | 0.00 | 0.00 | 0.00 | 60 | 1017.1 |
| 20260504070310 | 58 | 0 | 0.0 | 0.0 | 0.00 | 0.00 | 0.00 | 60 | 1016.8 |
| 20260504050310 | 47 | 0 | 0.0 | 0.0 | 0.00 | 0.00 | 0.00 | 74 | 1016.2 |
| 20260504043310 | 46 | 0 | 0.0 | 0.0 | 0.00 | 0.00 | 0.00 | 73 | 1016.6 |
| 20260504040310 | 45 | 0 | 0.0 | 0.0 | 0.00 | 0.00 | 0.00 | 71 | 1016.8 |
| 20260504033310 | 46 | 0 | 0.0 | 0.0 | 0.00 | 0.00 | 0.00 | 68 | 1016.9 |
| 20260504030310 | 46 | 0 | 0.0 | 0.0 | 0.00 | 0.00 | 0.00 | 69 | 1017.0 |
| 20260504023309 | 47 | 0 | 0.0 | 0.0 | 0.00 | 0.00 | 0.00 | 67 | 1017.5 |